Location: Nairn
(57.5833°N, 3.8667°W)
Time: 19:01:54
(UTC+00:00)

DNEPR-1 R/B - Pass Details

Date: 07 August 2020
Orbit: 572 x 1350 km, 64.6° (Epoch: 24 September)

Event Time Altitude Azimuth Distance (km) Brightness Sun altitude
Rises 01:14:30 0° 308° (NW) 3,869 8.0 -15.3°
Reaches altitude 10° 01:17:24 10° 307° (NW) 2,788 7.2 -15.2°
Maximum altitude 01:23:51 78° 223° (SW) 878 4.1 -15.0°
Drops below altitude 10° 01:29:01 10° 137° (SE) 2,254 6.1 -14.8°
Enters shadow 01:31:06 - 136° (SE) 3,061 6.8 -14.7°
